SCP
0 0 0 0 0 0 0 0 0 0 0 0 0 0 0 0 0 0 0 0 0 0 0 0 0 0 0 0 0 0 0 0 0 0 0 0 0 0 0 0 0 0 0 0
0 0 0 0 0 0 0 0 0 0 0 0 0 0 0 0 0 0 0 0 0 0 0 0 0 0 0 0 0 0 0 0 0 0 0 0 0 0 0 0 0 0 0 0
0 0 0 0 0 0 0 0 0 0 0 0 0 0 0 0 0 0 0 0 0 0 0 0 0 0 0 0 0 0 0 0 0 0 0 0 0 0 0 0 0 0 0 0
0 0 0 0 0 0 0 0 0 0 0 0 0 0 0 0 0 0 0 0 0 0 0 0 0 0 0 0 0 0 0 0 0 0 0 0 0 0 0 0 0 0 0 0
0 0 0 0 0 0 0 0 0 0 0 0 0 0 0 0 0 0 0 0 0 0 0 0 0 0 0 0 0 0 0 0 0 0 0 0 0 0 0 0 0 0 0 0
0 0 0 0 0 0 0 0 0 0 0 0 0 0 0 0 0 0 0 0 0 0 0 0 0 0 0 0 0 0 0 0 0 0 0 0 0 0 0 0 0 0 0 0
0 0 0 0 0 0 0 0 0 0 0 0 0 0 0 0 0 0 0 0 0 0 0 0 0 0 0 0 0 0 0 0 0 0 0 0 0 0 0 0 0 0 0 0
0 0 0 0 0 0 0 0 0 0 0 0 0 0 0 0 0 0 0 0 0 0 0 0 0 0 0 0 0 0 0 0 0 0 0 0 0 0 0 0 0 0 0 0
0 0 0 0 0 0 0 0 0 0 0 0 0 0 0 0 0 0 0 0 0 0 0 0 0 0 0 0 0 0 0 0 0 0 0 0 0 0 0 0 0 0 0 0
0 0 0 0 0 0 0 0 0 0 0 0 0 0 0 0 0 0 0 0 0 0 0 0 0 0 0 0 0 0 0 0 0 0 0 0 0 0 0 0 0 0 0 0
0 0 0 0 0 0 0 0 0 0 0 0 0 0 0 0 0 0 0 0 0 0 0 0 0 0 0 0 0 0 0 0 0 0 0 0 0 0 0 0 0 0 0 0
0 0 0 0 0 0 0 0 0 0 0 0 0 0 0 0 0 0 0 0 0 0 0 0 0 0 0 0 0 0 0 0 0 0 0 0 0 0 0 0 0 0 0 0
0 0 0 0 0 0 0 0 0 0 0 0 0 0 0 0 0 0 0 0 0 0 0 0 0 0 0 0 0 0 0 0 0 0 0 0 0 0 0 0 0 0 0 0
0 0 0 0 0 0 0 0 0 0 0 0 0 0 0 0 0 0 0 0 0 0 0 0 0 0 0 0 0 0 0 0 0 0 0 0 0 0 0 0 0 0 0 0
0 0 0 0 0 0 0 0 0 0 0 0 0 0 0 0 0 0 0 0 0 0 0 0 0 0 0 0 0 0 0 0 0 0 0 0 0 0 0 0 0 0 0 0
0 0 0 0 0 0 0 0 0 0 0 0 0 0 0 0 0 0 0 0 0 0 0 0 0 0 0 0 0 0 0 0 0 0 0 0 0 0 0 0 0 0 0 0
0 0 0 0 0 0 0 0 0 0 0 0 0 0 0 0 0 0 0 0 0 0 0 0 0 0 0 0 0 0 0 0 0 0 0 0 0 0 0 0 0 0 0 0
0 0 0 0 0 0 0 0 0 0 0 0 0 0 0 0 0 0 0 0 0 0 0 0 0 0 0 0 0 0 0 0 0 0 0 0 0 0 0 0 0 0 0 0
0 0 0 0 0 0 0 0 0 0 0 0 0 0 0 0 0 0 0 0 0 0 0 0 0 0 0 0 0 0 0 0 0 0 0 0 0 0 0 0 0 0 0 0
0 0 0 0 0 0 0 0 0 0 0 0 0 0 0 0 0 0 0 0 0 0 0 0 0 0 0 0 0 0 0 0 0 0 0 0 0 0 0 0 0 0 0 0
0 0 0 0 0 0 0 0 0 0 0 0 0 0 0 0 0 0 0 0 0 0 0 0 0 0 0 0 0 0 0 0 0 0 0 0 0 0 0 0 0 0 0 0
0 0 0 0 0 0 0 0 0 0 0 0 0 0 0 0 0 0 0 0 0 0 0 0 0 0 0 0 0 0 0 0 0 0 0 0 0 0 0 0 0 0 0 0
0 0 0 0 0 0 0 0 0 0 0 0 0 0 0 0 0 0 0 0 0 0 0 0 0 0 0 0 0 0 0 0 0 0 0 0 0 0 0 0 0 0 0 0
0 0 0 0 0 0 0 0 0 0 0 0 0 0 0 0 0 0 0 0 0 0 0 0 0 0 0 0 0 0 0 0 0 0 0 0 0 0 0 0 0 0 0 0
0 0 0 0 0 0 0 0 0 0 0 0 0 0 0 0 0 0 0 0 0 0 0 0 0 0 0 0 0 0 0 0 0 0 0 0 0 0 0 0 0 0 0 0
0 0 0 0 0 0 0 0 0 0 0 0 0 0 0 0 0 0 0 0 0 0 0 0 0 0 0 0 0 0 0 0 0 0 0 0 0 0 0 0 0 0 0 0
0 0 0 0 0 0 0 0 0 0 0 0 0 0 0 0 0 0 0 0 0 0 0 0 0 0 0 0 0 0 0 0 0 0 0 0 0 0 0 0 0 0 0 0
Wind_Speed
13 14 14 16 16 15 14 14 15 14 10 3 9 7 6 3 1 1 2 2 2 2 3 3 3 3 3 3 3 2 1 2 3 3 3 4 5 5 5 4 5 5 5 5
12 12 12 15 15 14 13 12 13 12 2 7 8 7 6 3 2 3 3 2 1 1 2 3 2 2 1 2 3 3 3 4 3 2 3 3 4 4 4 4 5 5 6 6
11 9 11 10 8 8 8 6 7 7 1 10 8 7 6 6 6 5 4 3 2 2 3 3 2 1 1 3 4 4 4 4 3 3 3 3 3 3 4 4 4 4 5 6
9 9 7 2 2 4 5 4 2 0 6 9 8 7 6 7 7 5 3 2 1 2 3 3 2 1 3 5 4 3 3 3 3 3 4 4 4 4 4 3 3 4 5 6
7 8 9 1 2 3 5 4 2 2 6 8 7 7 8 8 6 3 1 1 2 2 3 3 2 3 5 6 5 4 3 2 3 3 3 2 2 2 2 2 3 3 4 5
8 9 7 3 4 0 5 4 4 4 7 8 9 7 5 9 6 4 2 1 1 2 3 2 0 2 5 5 5 3 3 2 2 2 1 1 0 1 1 1 2 3 3 4
9 9 6 5 3 4 6 4 3 4 7 8 8 2 7 7 5 3 2 2 2 1 2 2 2 2 4 4 3 4 4 3 3 2 2 2 1 1 0 1 2 3 4 3
5 6 1 6 4 5 5 4 2 5 7 7 4 4 5 4 3 2 2 2 2 2 2 3 2 2 3 3 4 4 5 4 3 3 3 3 3 2 2 2 1 2 4 4
5 4 3 3 6 2 3 4 3 7 7 7 6 6 4 3 2 2 1 2 2 3 4 4 3 3 4 4 4 4 4 3 3 3 4 5 5 4 3 3 3 3 3 4
8 7 6 7 8 7 6 4 5 7 8 8 7 6 5 4 4 4 3 3 2 3 4 4 4 5 5 5 4 3 3 3 3 3 3 4 4 4 4 5 4 4 3 3
12 11 8 9 11 11 9 8 8 9 9 9 7 7 6 5 5 4 4 4 3 3 3 5 5 5 6 6 5 4 3 4 4 4 4 3 3 3 3 2 2 2 2 2
12 10 9 7 8 13 13 12 11 11 11 10 9 8 8 6 6 6 5 5 4 5 5 5 6 6 6 5 4 2 3 4 4 4 4 4 5 5 3 2 2 1 1 4
14 13 10 8 7 12 15 14 13 13 13 12 11 10 9 8 8 8 7 6 6 6 6 6 6 6 5 4 2 1 1 2 3 4 4 4 4 4 6 5 3 3 3 1
14 13 12 11 10 12 15 15 14 14 14 13 12 12 11 10 10 10 9 8 7 6 6 5 5 6 6 5 3 2 2 3 2 3 3 3 2 2 2 2 4 5 7 7
16 16 16 13 13 13 15 15 15 15 15 15 13 13 13 12 11 11 11 10 9 8 7 7 6 6 6 6 5 4 4 2 2 1 2 1 1 2 2 2 4 4 3 4
11 12 16 16 14 14 16 17 17 17 17 16 15 14 14 13 12 12 11 12 11 11 10 9 8 8 8 7 6 5 3 2 2 3 3 3 2 3 3 3 4 5 5 6
12 12 15 17 17 17 18 18 18 17 17 17 17 16 15 14 13 13 12 13 12 12 11 10 9 9 9 10 9 7 6 7 7 6 4 3 3 3 3 4 5 5 6 4
12 15 15 16 18 18 19 19 18 18 17 17 17 17 16 15 15 14 14 13 13 13 13 12 11 10 10 11 10 8 7 6 7 7 5 5 4 5 5 5 5 6 6 2
10 12 16 18 18 16 17 17 18 18 18 17 17 17 16 15 15 15 14 14 14 14 14 14 12 12 12 12 11 9 9 8 8 7 7 5 6 7 6 6 6 6 6 6
12 10 11 15 17 16 16 17 17 16 17 17 17 16 15 15 15 15 14 14 13 12 12 13 14 14 14 13 12 11 11 11 10 9 8 8 8 7 7 7 7 7 6 6
14 13 10 10 13 15 16 17 17 17 17 17 17 16 16 15 15 13 13 13 13 13 12 11 12 13 13 11 13 12 12 11 11 10 9 8 8 7 7 7 7 6 6 6
13 13 12 9 8 10 12 13 15 16 17 16 17 17 16 14 14 13 14 11 10 12 12 12 13 13 12 12 12 13 12 12 11 9 8 8 7 7 7 8 8 7 7 6
13 13 12 10 8 8 9 11 13 14 15 16 16 16 16 14 12 12 12 11 11 12 12 12 11 14 15 13 12 12 12 12 10 8 7 7 7 8 9 9 8 7 7 7
15 14 13 11 9 8 9 10 11 11 13 14 14 15 14 13 11 12 12 11 12 13 12 11 12 15 16 13 12 12 11 10 9 8 8 8 9 9 8 8 8 7 6 7
16 16 15 14 12 9 8 8 9 10 11 10 12 13 12 11 12 11 12 12 13 15 13 13 15 16 14 13 12 11 10 9 8 7 8 8 8 8 8 8 7 6 6 5
15 14 13 13 11 10 9 8 9 9 9 9 9 9 9 9 11 10 9 12 15 14 13 11 13 14 13 13 12 11 10 9 9 8 8 7 8 8 8 7 8 6 5 5
14 13 11 12 12 12 11 11 10 10 10 10 10 9 9 9 9 10 12 11 11 12 13 12 11 12 12 12 11 10 8 7 7 7 7 7 7 7 7 7 6 5 5 5
Wind_Direction
282 280 278 278 278 281 275 270 275 287 306 173 165 151 131 106 53 297 284 297 344 5 16 16 22 22 27 31 26 34 77 80 70 82 96 99 93 86 74 56 53 44 38 38
287 282 276 272 268 270 275 283 287 290 309 100 123 134 139 152 203 243 256 253 265 334 6 13 5 7 44 77 65 60 65 70 67 79 104 114 111 105 95 72 55 45 42 45
297 313 289 275 276 273 274 281 297 303 138 149 158 168 172 182 204 224 238 256 286 346 358 349 340 325 134 109 91 83 83 77 65 62 64 68 85 89 80 69 62 51 50 57
296 306 284 13 14 305 286 276 286 18 142 170 174 180 190 198 206 206 212 234 277 346 352 337 311 229 161 147 137 124 107 85 67 63 63 52 48 47 42 40 44 47 54 66
293 297 296 204 194 259 283 282 202 197 162 171 169 186 200 201 211 211 192 315 336 345 344 332 287 208 168 161 154 141 118 92 70 61 69 66 47 13 1 9 29 32 47 64
283 295 299 40 95 211 278 262 136 181 176 174 189 228 165 159 178 177 191 231 296 332 350 358 33 189 171 166 160 139 105 85 58 41 39 2 265 255 274 354 9 354 31 43
278 281 291 84 131 212 262 45 108 195 184 188 209 352 97 141 159 165 183 206 240 281 23 45 71 152 163 158 128 98 93 86 66 41 11 352 322 262 179 99 23 349 10 21
271 275 335 116 202 252 350 25 257 200 185 187 175 136 141 150 157 176 197 188 209 205 112 105 107 130 136 115 91 91 90 87 77 54 28 35 33 23 39 63 58 360 -0 349
292 308 31 227 246 282 307 282 224 191 180 176 173 168 157 147 141 136 143 160 189 171 138 128 131 144 134 110 102 106 102 97 92 78 55 46 46 40 48 52 45 27 7 353
261 262 246 228 226 223 221 230 199 188 181 182 180 167 157 143 132 124 120 134 154 150 144 130 122 124 131 137 136 139 137 134 126 110 89 69 60 51 49 45 43 38 23 5
256 265 261 234 224 215 202 200 191 190 189 189 183 174 167 158 143 127 117 114 121 127 129 123 132 140 146 149 157 165 167 163 155 143 131 117 102 79 70 74 50 9 0 353
262 266 252 250 218 207 200 199 196 194 195 196 193 185 178 169 157 150 140 132 129 126 127 128 137 143 147 159 174 191 181 159 156 158 151 151 146 138 99 72 123 159 329 330
259 263 256 245 219 201 202 202 198 197 197 196 195 193 186 179 173 173 169 166 156 146 142 147 151 150 151 155 161 153 114 120 154 156 158 167 167 170 161 161 173 172 159 108
252 254 248 233 222 206 206 203 200 199 199 196 193 194 193 190 186 188 190 187 181 175 171 174 178 174 174 175 191 215 203 146 195 166 172 174 170 211 214 200 184 182 178 171
247 234 234 237 225 207 203 203 201 201 201 200 196 194 198 200 199 199 200 199 196 201 204 206 210 206 199 202 205 216 225 182 182 157 203 204 241 263 292 316 314 311 303 173
265 239 228 232 222 206 202 204 205 204 202 201 200 200 203 207 209 209 204 203 206 213 215 217 222 220 211 212 206 205 201 78 267 235 212 206 236 271 288 301 303 315 319 328
258 236 220 219 218 212 207 206 207 206 204 203 204 204 208 212 214 216 215 211 214 221 221 219 220 218 209 206 216 220 201 168 193 239 234 237 255 272 291 299 306 317 317 12
266 251 234 221 218 214 210 208 208 207 207 204 205 208 210 213 218 221 222 220 216 221 224 222 218 213 209 207 214 231 220 210 205 230 237 238 256 265 274 283 291 295 302 280
306 270 253 239 229 222 212 208 207 206 207 207 209 212 213 218 222 226 225 222 218 220 222 222 211 211 211 209 208 224 233 230 227 231 241 228 235 256 265 273 281 290 298 305
348 320 275 251 236 225 215 209 206 205 206 208 213 217 220 222 224 226 224 222 220 225 217 210 199 208 216 207 206 224 226 231 237 238 236 241 241 249 257 264 274 286 293 293
359 349 324 275 247 232 221 211 205 204 205 209 213 218 222 225 225 222 220 222 217 219 224 197 198 205 209 203 194 226 231 230 233 239 241 240 245 252 259 264 269 273 277 280
350 349 344 323 278 246 228 217 210 208 206 208 213 218 222 224 222 218 217 228 222 192 205 207 206 207 202 200 210 223 231 234 235 236 237 237 242 251 256 257 258 261 265 270
325 326 329 330 312 275 244 227 218 216 215 213 213 216 220 224 222 215 216 213 223 192 202 217 207 184 182 207 226 228 232 235 235 234 231 233 240 245 249 251 252 256 262 268
298 298 298 300 301 282 255 235 222 219 221 224 224 223 224 226 223 222 226 209 202 188 206 210 186 178 186 215 225 231 231 227 224 224 228 233 239 243 246 249 254 258 259 262
280 279 277 274 270 265 259 245 229 218 217 220 226 225 225 229 230 223 220 215 191 184 208 198 180 182 197 219 224 224 223 218 215 219 226 236 243 246 248 249 250 252 254 255
271 267 266 263 264 265 260 251 239 225 218 219 221 221 224 226 229 228 217 216 204 196 212 206 183 187 211 219 219 217 214 200 192 209 229 240 247 250 251 252 246 245 249 253
267 262 257 254 252 247 247 247 246 243 235 231 232 227 226 229 227 225 222 218 209 199 209 213 200 194 205 211 210 203 197 194 196 206 221 231 242 246 246 238 239 235 235 240